Wetterdaten: aktuell Donnerstag, 24.10.2019 02:06
Datum Zeit Temperatur Bodentemp. Luftfeuchte Luftdruck Regen Wind Richtung Richtung Sonnenschein
24.10.2019 02:06 12,6 C 5,8 C 100 % 1009 hPa 0,0 l/m 9,9 km/h (2 Bft) O22.5 90 0 min
24.10.2019 02:01 12,6 C 6,1 C 100 % 1009 hPa 0,0 l/m 9,9 km/h (2 Bft) O22.5 90 0 min
24.10.2019 01:57 12,6 C 6,1 C 100 % 1008 hPa 0,0 l/m 11,0 km/h (2 Bft) O22.5 95 0 min
24.10.2019 01:51 12,6 C 6,1 C 100 % 1009 hPa 0,0 l/m 15,7 km/h (3 Bft) O22.5 100 0 min
24.10.2019 01:46 12,7 C 6,1 C 100 % 1009 hPa 0,0 l/m 15,7 km/h (3 Bft) O22.5 100 0 min
24.10.2019 01:41 12,6 C 6,1 C 100 % 1009 hPa 0,0 l/m 15,7 km/h (3 Bft) O22.5 100 0 min
24.10.2019 01:36 12,6 C 6,1 C 100 % 1009 hPa 0,0 l/m 15,7 km/h (3 Bft) O22.5 100 0 min
24.10.2019 01:31 12,5 C 5,9 C 100 % 1009 hPa 0,0 l/m 10,6 km/h (2 Bft) O-SO22.5 105 0 min
24.10.2019 01:26 12,3 C 5,6 C 100 % 1009 hPa 0,0 l/m 11,8 km/h (2 Bft) O22.5 100 0 min
24.10.2019 01:22 12,3 C 5,4 C 100 % 1009 hPa 0,0 l/m 7,3 km/h (2 Bft) O22.5 95 0 min
24.10.2019 01:16 12,4 C 5,6 C 100 % 1009 hPa 0,0 l/m 8,9 km/h (2 Bft) O 100 0 min
24.10.2019 01:11 12,5 C 5,9 C 100 % 1009 hPa 0,0 l/m 5,7 km/h (2 Bft) O-SO 105 0 min
24.10.2019 01:06 12,6 C 5,9 C 100 % 1009 hPa 0,0 l/m 10,0 km/h (2 Bft) O 95 0 min
24.10.2019 01:01 12,6 C 6,0 C 100 % 1009 hPa 0,0 l/m 10,0 km/h (2 Bft) O 95 0 min
24.10.2019 00:56 12,6 C 6,0 C 100 % 1009 hPa 0,0 l/m 7,8 km/h (2 Bft) O-SO22.5 115 0 min
24.10.2019 00:51 12,6 C 6,1 C 100 % 1009 hPa 0,0 l/m 8,3 km/h (2 Bft) O-SO22.5 110 0 min
24.10.2019 00:47 12,6 C 6,1 C 100 % 1009 hPa 0,0 l/m 16,8 km/h (3 Bft) O-SO22.5 115 0 min
24.10.2019 00:41 12,3 C 5,7 C 100 % 1009 hPa 0,0 l/m 0,0 km/h (0 Bft) SO22.5 135 0 min
24.10.2019 00:36 12,4 C 5,8 C 99 % 1009 hPa 0,0 l/m 7,8 km/h (2 Bft) O-SO22.5 115 0 min
24.10.2019 00:31 12,3 C 5,6 C 99 % 1009 hPa 0,0 l/m 7,8 km/h (2 Bft) O-SO22.5 115 0 min
24.10.2019 00:26 12,1 C 5,6 C 99 % 1010 hPa 0,0 l/m 12,8 km/h (3 Bft) O22.5 85 0 min
24.10.2019 00:21 12,1 C 5,6 C 98 % 1010 hPa 0,0 l/m 2,8 km/h (1 Bft) O-NO 60 0 min
24.10.2019 00:16 12,3 C 5,6 C 98 % 1010 hPa 0,0 l/m 2,8 km/h (1 Bft) O-NO 60 0 min
24.10.2019 00:12 12,4 C 5,7 C 97 % 1010 hPa 0,0 l/m 6,8 km/h (2 Bft) O22.5 85 0 min
24.10.2019 00:06 12,4 C 5,6 C 97 % 1009 hPa 0,0 l/m 0,0 km/h (0 Bft) O-NO 75 0 min
24.10.2019 00:01 12,8 C 5,8 C 96 % 1009 hPa 0,0 l/m 5,2 km/h (1 Bft) O 85 0 min
23.10.2019 23:56 12,8 C 5,9 C 96 % 1009 hPa 0,0 l/m 9,5 km/h (2 Bft) O-SO22.5 105 0 min
23.10.2019 23:51 12,8 C 6,0 C 96 % 1009 hPa 0,0 l/m 9,5 km/h (2 Bft) O-SO22.5 105 0 min
23.10.2019 23:47 12,8 C 6,0 C 96 % 1009 hPa 0,0 l/m 7,7 km/h (2 Bft) O 90 0 min
23.10.2019 23:41 13,0 C 6,3 C 96 % 1009 hPa 0,0 l/m 6,9 km/h (2 Bft) O45 85 0 min
23.10.2019 23:36 13,0 C 6,3 C 95 % 1009 hPa 0,0 l/m 6,9 km/h (2 Bft) O45 85 0 min
23.10.2019 23:31 13,1 C 6,4 C 95 % 1009 hPa 0,0 l/m 12,0 km/h (2 Bft) O22.5 100 0 min
23.10.2019 23:27 13,2 C 6,4 C 95 % 1010 hPa 0,0 l/m 8,9 km/h (2 Bft) O-SO22.5 105 0 min
23.10.2019 23:21 13,1 C 6,5 C 95 % 1010 hPa 0,0 l/m 11,3 km/h (2 Bft) O22.5 100 0 min
23.10.2019 23:16 13,3 C 6,5 C 95 % 1010 hPa 0,0 l/m 11,3 km/h (2 Bft) O22.5 100 0 min
23.10.2019 23:11 13,3 C 6,5 C 95 % 1010 hPa 0,0 l/m 10,1 km/h (2 Bft) O45 80 0 min
23.10.2019 23:06 13,4 C 6,7 C 95 % 1010 hPa 0,0 l/m 9,4 km/h (2 Bft) O22.5 95 0 min
23.10.2019 23:01 13,4 C 5,7 C 95 % 1010 hPa 0,0 l/m 17,0 km/h (3 Bft) O-SO22.5 120 0 min
23.10.2019 22:56 13,4 C 6,7 C 95 % 1010 hPa 0,0 l/m 12,0 km/h (2 Bft) O45 100 0 min
23.10.2019 22:52 13,5 C 6,6 C 95 % 1010 hPa 0,0 l/m 11,5 km/h (2 Bft) O-SO67.5 105 0 min
23.10.2019 22:46 13,5 C 6,7 C 96 % 1010 hPa 0,0 l/m 11,5 km/h (2 Bft) O-SO67.5 105 0 min
23.10.2019 22:41 13,4 C 6,8 C 96 % 1010 hPa 0,0 l/m 22,8 km/h (4 Bft) O-SO22.5 120 0 min
23.10.2019 22:36 13,3 C 6,8 C 96 % 1010 hPa 0,0 l/m 22,2 km/h (4 Bft) O-SO22.5 115 0 min
23.10.2019 22:31 13,4 C 6,6 C 96 % 1010 hPa 0,0 l/m 19,6 km/h (3 Bft) O-SO22.5 120 0 min
23.10.2019 22:26 13,3 C 6,6 C 96 % 1010 hPa 0,0 l/m 18,1 km/h (3 Bft) O-SO22.5 115 0 min
23.10.2019 22:21 13,1 C 6,6 C 96 % 1010 hPa 0,0 l/m 18,1 km/h (3 Bft) O-SO22.5 115 0 min
23.10.2019 22:17 13,1 C 6,3 C 96 % 1010 hPa 0,0 l/m 19,1 km/h (3 Bft) O-SO22.5 105 0 min
23.10.2019 22:11 13,0 C 6,3 C 96 % 1010 hPa 0,0 l/m 11,6 km/h (2 Bft) O-SO22.5 115 0 min
23.10.2019 22:06 13,1 C 6,3 C 96 % 1010 hPa 0,0 l/m 9,4 km/h (2 Bft) O22.5 100 0 min
_ Min-Zeit 07:11 04:06 14:06 01:57 - 03:01 - - -
Minimum _ 8,6 C 3,2 C 74 % 1008 hPa - 0,0 km/h (0 Bft) - - -
_ Max-Zeit 14:01 16:06 03:01 03:01 03:01 12:41 - - 11:42
Maximum _ 15,4 C 7,5 C 100 % 1022 hPa 0,0 l/m 30,2 km/h
O-SO (5 Bft)
- - 6 min
Durchschnitt _ 12,1 C 5,6 C 92 % 1015 hPa #0,0 l/m 12,1 km/h (2 Bft) O-SO - #0 min.